Location: Melbourne
(37.8666°S, 145.1333°E)
Time: 15:34:52
(UTC+11:00)

Iridium 21 - Pass Details

Date: 27 November 2017
Orbit: 776 x 779 km, 86.4° (Epoch: 11 December)

Event Time Altitude Azimuth Distance (km) Brightness Sun altitude
Rises 20:58:22 0° 303° (WNW) 3,259 9.1 -7.0°
Reaches altitude 10° 21:03:13 10° 262° (W) 2,347 9.2 -7.8°
Maximum altitude 21:04:05 10° 253° (WSW) 2,323 9.4 -7.9°
Drops below altitude 10° 21:04:58 10° 243° (WSW) 2,353 9.7 -8.0°
Sets 21:09:54 0° 202° (SSW) 3,296 9.9 -8.8°
